Change the Weather History Date:

Wednesday, September 4, 2013

  Actual Average Record
Temperature  
Mean Temperature 67 °F -  
Max Temperature 78 °F 73 °F 93 °F (1953)
Min Temperature 57 °F 53 °F 36 °F (1946)
Cooling Degree Days 2    
Growing Degree Days 17 (Base 50)    
Moisture  
Dew Point 57 °F    
Average Humidity 74    
Maximum Humidity 100    
Minimum Humidity 41    
Precipitation  
Precipitation 0.00 in - - ()
Sea Level Pressure  
Sea Level Pressure 29.85 in    
Wind  
Wind Speed 3 mph (SW)    
Max Wind Speed 10 mph    
Max Gust Speed -    
Visibility 10 miles    
Events      
Averages and records for this station are not official NWS values.
T = Trace of Precipitation, MM = Missing Value Source: NWS Daily Summary

Daily Weather History Graph

Daily Weather History Graph

Search for Another Location

Airport or City:

Trip Planner

Search our weather history database for the weather conditions in past years. The results will help you decide how hot, cold, wet, or windy it might be!

Date:

Astronomy

Sep. 04, 2013 Rise Set
Actual Time 6:16 AM EDT 7:18 PM EDT
Civil Twilight 5:47 AM EDT 7:48 PM EDT
Nautical Twilight 5:12 AM EDT 8:23 PM EDT
Astronomical Twilight 4:35 AM EDT 8:59 PM EDT
Moon 5:25 AM EDT (9/4) 6:36 PM EDT (9/4)
Length of Visible Light 14h 01m
Length of Day
13h 02m
Waning Crescent, 1% of the Moon is Illuminated
Sep 4
Waning Crescent
Sep 5
New
Sep 12
First Quarter
Sep 19
Full
Sep 26
Last Quarter

Hourly Weather History & Observations

Time (EDT) Temp. Dew Point Humidity Pressure Visibility Wind Dir Wind Speed Gust Speed Precip Events Conditions
12:53 AM 60.1 °F 60.1 °F 100% 29.80 in 10.0 mi Calm Calm - N/A   Scattered Clouds
1:53 AM 61.0 °F 61.0 °F 100% 29.80 in 10.0 mi Calm Calm - N/A   Overcast
2:53 AM 59.0 °F 59.0 °F 100% 29.81 in 10.0 mi Calm Calm - N/A   Mostly Cloudy
3:53 AM 61.0 °F 61.0 °F 100% 29.81 in 10.0 mi Calm Calm - N/A   Overcast
4:53 AM 61.0 °F 61.0 °F 100% 29.83 in 10.0 mi Calm Calm - N/A   Overcast
5:53 AM 59.0 °F 59.0 °F 100% 29.84 in 10.0 mi South 3.5 mph - N/A   Overcast
6:53 AM 57.0 °F 57.0 °F 100% 29.86 in 10.0 mi South 3.5 mph - N/A   Clear
7:53 AM 62.1 °F 62.1 °F 100% 29.87 in 10.0 mi SSE 3.5 mph - N/A   Clear
8:53 AM 66.9 °F 57.0 °F 70% 29.86 in 10.0 mi WSW 8.1 mph - N/A   Clear
9:53 AM 69.1 °F 55.0 °F 61% 29.86 in 10.0 mi Variable 4.6 mph - N/A   Clear
10:53 AM 73.0 °F 52.0 °F 48% 29.86 in 10.0 mi Variable 4.6 mph - N/A   Clear
11:53 AM 75.0 °F 50.0 °F 41% 29.86 in 10.0 mi West 8.1 mph - N/A   Clear
12:53 PM 75.9 °F 53.1 °F 45% 29.86 in 10.0 mi SW 9.2 mph - N/A   Clear
1:53 PM 75.9 °F 52.0 °F 43% 29.85 in 10.0 mi Variable 6.9 mph - N/A   Mostly Cloudy
2:53 PM 75.0 °F 53.1 °F 46% 29.85 in 10.0 mi West 9.2 mph - N/A   Scattered Clouds
3:53 PM 77.0 °F 55.0 °F 47% 29.85 in 10.0 mi West 10.4 mph - N/A   Scattered Clouds
4:53 PM 77.0 °F 54.0 °F 45% 29.83 in 10.0 mi West 9.2 mph - N/A   Partly Cloudy
5:53 PM 77.0 °F 54.0 °F 45% 29.84 in 10.0 mi WSW 8.1 mph - N/A   Clear
6:53 PM 73.9 °F 55.0 °F 52% 29.84 in 10.0 mi SW 5.8 mph - N/A   Scattered Clouds
7:53 PM 69.1 °F 63.0 °F 81% 29.85 in 10.0 mi South 6.9 mph - N/A   Overcast
8:53 PM 70.0 °F 59.0 °F 68% 29.88 in 10.0 mi Calm Calm - N/A   Overcast
9:53 PM 68.0 °F 62.1 °F 81% 29.89 in 10.0 mi Calm Calm - N/A   Overcast
10:53 PM 63.0 °F 62.1 °F 97% 29.89 in 10.0 mi SSE 3.5 mph - 0.00 in   Overcast
11:53 PM 63.0 °F 63.0 °F 100% 29.87 in 10.0 mi Calm Calm - N/A   Overcast